Theta_e
323 322 322 322 321 321 319 318 318 318 318 318 318 317 317 317 316 316 316 316 316 316 316 316 316 316 316 316 317 317 317 318 318 319 319 319 319 319 318 318 318 318 319 317 316 317 317 317 316 315 315 308
320 322 321 321 320 319 318 317 317 317 317 316 316 316 316 315 315 315 314 314 314 313 313 313 313 313 314 314 315 315 316 316 317 317 317 317 317 317 317 317 316 316 316 317 316 316 316 316 316 315 315 309
313 319 320 320 319 318 318 317 317 316 316 316 315 315 314 314 314 313 313 313 312 312 312 312 312 312 312 314 314 315 315 315 316 316 315 315 315 316 316 316 315 314 314 314 315 315 315 315 314 314 313 307
307 314 318 318 318 318 318 316 316 316 316 315 315 314 313 313 311 310 307 310 308 310 310 310 309 311 312 313 314 314 314 314 314 313 313 313 313 313 313 313 313 313 313 313 314 314 315 314 314 309 305 303
306 307 315 316 317 317 316 316 315 315 314 313 311 311 310 310 304 300 300 300 299 307 303 308 310 310 311 312 313 313 313 313 313 313 313 313 313 312 311 311 313 314 314 313 314 314 313 313 308 305 304 303
307 307 312 307 305 305 307 311 313 307 304 309 302 307 305 301 301 300 298 299 303 300 302 302 308 310 310 310 310 310 309 310 311 311 311 311 311 310 310 312 308 307 310 311 311 311 311 308 304 303 302 301
306 306 306 305 304 304 309 307 305 303 303 301 300 300 299 300 299 298 298 299 302 304 307 303 305 306 306 306 307 306 307 307 308 308 309 308 308 309 309 304 301 301 301 301 307 307 303 299 299 299 299 298
303 303 303 303 301 302 301 302 303 303 301 300 299 300 299 299 298 298 298 302 303 302 296 297 301 303 302 302 302 304 302 303 303 305 305 305 305 303 300 297 297 297 297 298 298 297 297 296 296 296 296 296
304 302 303 301 301 301 301 302 303 304 304 304 303 301 300 299 299 298 297 297 297 296 296 296 296 296 296 296 296 302 296 296 296 297 295 296 297 295 295 295 295 295 295 295 296 295 296 295 295 294 294 294
305 306 304 305 305 304 304 303 303 303 303 302 301 300 299 299 298 297 297 297 297 297 296 297 297 297 297 297 296 297 296 296 296 296 295 295 295 295 295 294 294 294 295 294 295 295 295 294 294 293 293 293
307 307 307 307 308 307 307 306 304 302 301 299 298 297 297 297 296 295 295 295 296 296 296 296 296 296 296 296 295 295 295 295 295 295 295 295 295 295 295 294 294 294 293 293 293 293 293 293 293 292 292 292
306 306 306 305 305 305 304 302 299 298 297 296 293 292 292 293 292 291 291 292 293 294 294 294 295 295 293 292 291 292 293 292 293 294 294 293 293 293 293 293 293 294 294 293 292 291 291 291 291 291 291 292
305 305 305 304 303 302 302 298 296 294 292 291 290 288 288 289 288 288 288 289 290 291 291 291 291 290 288 288 288 290 290 290 290 290 291 291 291 291 291 291 292 293 293 293 293 293 292 292 292 292 292 291
304 304 303 302 300 299 298 295 293 292 289 288 286 285 285 285 286 285 286 286 287 287 287 288 287 286 285 285 286 287 287 288 288 287 287 287 287 287 287 288 288 289 289 290 291 292 292 292 292 293 293 293
303 302 300 299 297 296 293 292 291 289 287 285 284 284 283 283 284 284 284 284 284 285 285 284 283 283 283 283 284 285 285 286 285 284 284 284 284 284 284 285 285 285 286 287 289 289 289 289 290 290 291 291
300 298 297 296 294 292 291 290 288 287 286 284 282 282 282 282 282 282 282 282 282 282 281 281 281 281 281 281 283 284 283 282 282 282 282 282 282 283 282 282 282 284 284 284 283 283 284 285 286 288 289 290
297 296 294 294 293 291 290 288 286 285 284 282 281 281 281 281 281 280 280 280 280 280 280 280 279 279 279 280 281 281 280 280 280 279 279 280 281 280 280 280 281 282 281 280 280 281 281 283 285 285 285 286
293 292 291 291 290 290 288 285 285 284 282 281 279 279 280 280 280 279 278 278 278 278 278 278 278 277 278 279 279 279 279 278 278 277 277 278 279 279 277 277 279 278 277 278 278 278 280 282 281 282 282 284
291 290 289 288 287 287 287 285 283 282 282 280 279 278 278 279 279 279 278 277 277 277 277 276 276 276 277 278 277 277 277 277 277 275 273 275 276 276 275 277 278 277 276 275 276 277 279 278 279 280 281 284
290 289 287 286 286 285 285 283 281 280 280 280 278 277 277 278 279 278 277 276 277 276 276 276 275 275 276 276 276 276 276 277 275 273 272 273 275 274 273 274 275 274 274 275 275 276 276 277 278 279 280 280
289 288 286 284 283 283 283 282 279 279 279 278 278 277 276 276 278 277 276 275 276 276 275 275 275 275 275 275 275 275 274 275 275 272 270 270 274 274 272 272 272 273 274 274 273 274 274 275 277 277 279 276
287 286 285 283 282 282 281 281 280 278 278 277 277 276 275 275 276 277 276 275 275 275 275 275 274 274 274 274 274 274 273 274 274 271 269 268 271 273 272 271 271 271 273 272 271 272 273 274 275 276 276 275
287 285 284 283 282 280 280 280 280 278 276 276 276 275 275 275 275 276 275 275 275 274 274 273 273 272 272 273 272 271 271 272 273 271 269 267 268 271 271 271 271 271 272 271 270 271 272 273 273 276 275 273
284 283 281 280 280 279 279 278 278 278 276 275 275 275 274 274 274 275 275 273 274 273 273 272 271 270 270 270 269 268 268 269 271 270 267 266 267 267 269 271 270 271 271 269 269 270 271 272 272 275 273 272
281 280 280 279 278 277 277 277 277 277 276 275 275 274 273 273 273 274 274 273 272 271 271 270 269 269 269 269 268 267 266 268 270 270 267 266 266 266 266 267 269 270 270 265 265 268 269 269 272 273 271 270
279 280 278 278 277 277 276 275 275 275 275 274 274 274 273 272 272 272 273 273 272 270 269 269 268 267 267 267 267 267 266 267 270 268 265 265 264 266 266 265 268 269 266 262 264 263 265 266 270 271 268 269
278 279 279 278 277 277 276 277 276 275 275 275 273 273 272 271 271 271 271 272 272 269 269 269 268 266 266 266 266 265 264 265 266 266 264 263 263 263 265 267 268 267 265 260 264 264 265 262 264 266 267 267
278 279 279 278 277 277 276 275 276 275 275 274 273 271 272 271 270 270 270 271 272 270 268 268 268 266 265 265 265 264 263 263 264 264 263 263 263 264 262 264 265 266 264 262 263 257 261 262 262 258 261 262
277 277 276 277 276 276 275 275 274 273 272 272 274 271 270 270 270 269 269 270 271 271 268 268 267 266 265 264 264 264 263 263 263 263 263 262 262 262 263 261 264 263 264 262 265 261 258 258 257 258 259 261
275 275 275 274 273 271 272 271 270 269 269 270 270 269 270 270 269 268 268 268 269 270 269 267 266 266 264 264 263 263 263 263 263 262 262 262 262 261 263 263 262 260 262 262 263 262 261 261 256 256 258 261
274 273 274 273 272 271 270 269 270 271 271 270 270 270 269 269 269 268 267 266 266 267 269 268 266 265 264 263 263 263 262 261 261 261 261 261 261 261 262 263 261 259 258 260 261 261 260 260 260 260 258 257
Wind_Speed
1 2 3 3 4 4 5 6 6 7 8 8 9 10 10 11 12 12 13 13 14 14 15 16 16 17 18 19 19 19 19 19 20 20 20 21 22 22 22 22 22 24 24 24 23 21 19 17 16 15 14 7
3 2 3 3 4 4 5 5 6 6 7 7 8 9 9 10 11 12 12 13 14 14 15 16 16 17 17 18 18 19 19 19 20 20 21 21 22 22 22 22 22 22 23 22 21 21 19 18 17 15 15 8
2 4 3 4 3 4 4 5 6 6 6 7 7 8 8 9 10 11 12 12 13 14 15 15 15 15 17 18 18 19 19 20 20 21 21 21 22 22 22 22 22 22 22 22 22 21 19 19 17 18 12 6
2 3 5 4 4 4 4 5 5 5 5 6 6 7 8 9 7 7 7 11 9 11 13 13 12 14 16 17 18 19 19 20 21 21 21 22 22 23 22 23 22 22 22 22 22 21 20 18 19 11 7 6
2 3 4 5 5 5 5 5 5 6 6 6 6 6 7 7 5 4 4 5 5 9 6 11 13 13 15 17 18 19 20 21 22 23 23 23 23 23 24 22 23 20 19 19 20 20 19 19 12 8 8 8
2 2 2 3 2 2 3 5 5 4 4 5 4 6 5 4 4 4 4 4 6 5 6 7 12 12 15 18 20 21 22 22 23 24 24 25 25 25 24 24 12 9 11 15 16 15 16 11 8 8 8 7
1 1 1 2 2 3 4 3 3 3 3 4 4 4 4 4 5 4 4 4 5 6 9 10 14 15 16 17 18 18 20 20 21 22 22 23 23 24 23 13 9 9 9 9 13 13 10 8 8 8 8 8
2 1 1 1 2 3 3 3 3 3 3 3 3 4 4 5 4 4 6 7 10 10 8 8 11 14 14 14 14 16 12 14 15 19 18 19 20 14 8 9 9 9 9 9 8 8 8 8 8 8 8 7
2 2 2 2 3 3 3 3 2 3 5 7 9 9 8 8 7 8 8 8 9 8 9 9 9 9 9 8 9 12 10 9 9 10 9 9 10 8 8 9 9 9 9 9 9 8 8 8 8 7 7 7
3 5 7 7 6 6 5 6 6 7 9 11 12 11 11 11 11 11 10 9 10 10 9 9 10 9 9 10 10 11 11 10 11 11 10 10 10 10 9 9 9 9 9 10 10 9 8 8 7 7 7 7
8 8 7 7 9 10 10 10 12 12 11 12 14 13 12 11 10 10 10 11 11 11 10 10 10 10 10 12 13 13 11 12 12 11 11 10 11 11 11 11 11 11 11 10 10 9 9 8 8 7 7 7
8 6 8 9 10 11 12 13 13 11 10 11 14 14 12 12 11 12 12 12 12 11 10 11 11 11 11 11 11 11 11 13 12 12 12 12 13 13 12 12 12 11 11 10 9 9 8 8 8 8 8 8
7 8 10 11 11 11 13 12 11 12 12 12 11 13 13 12 12 11 10 11 11 10 11 11 11 11 12 12 12 12 12 12 12 11 11 11 12 12 13 13 13 13 13 11 10 10 10 10 9 9 9 9
8 9 11 12 12 11 13 11 11 12 13 9 11 12 13 12 11 11 10 10 11 11 12 12 12 12 12 12 11 10 11 10 11 13 13 13 13 13 13 13 14 14 13 14 13 13 14 14 13 12 12 12
10 12 12 12 11 12 11 11 11 11 12 11 12 10 12 12 12 12 12 12 11 10 12 12 12 12 11 11 11 10 11 12 13 11 11 12 12 11 11 12 12 13 13 12 13 15 16 15 14 14 13 13
12 13 12 12 12 12 10 11 9 11 10 12 10 12 11 12 12 13 12 13 12 12 11 10 11 10 11 11 10 11 12 12 11 10 10 11 11 11 11 11 11 12 12 14 14 14 15 14 13 13 13 13
11 11 11 9 10 10 10 11 10 12 11 11 11 12 13 13 14 14 12 11 12 12 10 10 11 12 12 11 11 12 14 13 12 12 12 12 13 13 13 12 12 12 12 13 14 13 14 13 13 14 13 13
11 12 11 11 11 11 12 13 12 12 11 12 12 12 13 13 14 14 12 11 11 11 11 11 12 12 13 13 13 12 13 13 13 13 15 15 13 14 14 13 13 13 13 12 12 13 13 12 13 13 13 13
11 9 10 10 10 10 12 12 11 9 10 11 11 11 11 13 13 14 14 14 11 11 12 11 11 13 13 13 12 12 12 12 12 14 15 14 14 12 12 12 13 14 12 13 14 13 13 13 13 12 12 12
13 10 12 11 12 10 11 11 11 12 10 9 10 11 11 13 14 15 15 14 13 12 12 12 12 12 13 14 12 12 13 13 14 15 15 14 14 13 14 14 14 13 13 13 14 13 12 13 13 11 11 12
12 12 13 13 12 11 12 11 10 12 11 10 11 11 12 13 14 16 16 15 14 12 12 12 12 12 14 13 12 13 13 13 13 14 14 13 14 13 12 13 14 13 13 14 14 14 14 13 12 11 10 11
11 11 12 12 11 13 13 12 11 11 10 12 11 12 13 14 14 15 16 15 14 12 12 12 13 13 15 13 13 12 13 12 12 13 14 13 12 13 12 12 14 15 13 13 13 12 14 13 11 10 9 11
9 11 11 10 11 11 10 9 10 11 12 12 12 13 14 14 14 14 15 15 15 13 13 12 13 14 15 13 13 13 13 13 14 14 15 15 13 13 12 11 13 14 13 12 11 11 12 11 13 8 10 11
8 8 9 9 5 10 10 9 10 12 12 12 13 14 14 14 14 14 13 15 14 14 13 13 13 13 14 13 13 14 14 14 14 16 16 15 13 13 12 11 12 14 14 13 11 12 11 10 10 9 11 14
8 8 7 8 12 11 9 9 11 12 12 12 13 15 15 14 13 14 14 14 14 14 14 13 12 13 14 13 12 12 12 13 14 15 14 12 11 14 13 10 13 15 14 14 10 10 8 10 8 8 12 14
9 9 9 8 7 8 9 10 10 11 12 12 13 14 14 13 13 14 14 13 14 15 14 13 13 13 13 13 12 12 12 14 15 17 16 13 11 12 12 11 15 16 16 12 14 16 12 9 5 8 11 15
9 8 9 9 7 7 9 11 11 11 12 12 13 14 14 14 14 14 14 15 14 13 14 13 13 12 11 12 12 12 13 13 15 15 16 16 13 12 11 10 13 16 17 10 14 11 8 11 12 9 4 9
8 9 7 9 10 11 10 10 11 12 12 12 13 14 14 14 14 15 14 15 13 13 14 14 13 12 12 12 12 12 12 13 15 15 15 15 14 13 12 13 12 16 15 12 15 13 11 9 9 13 11 17
7 7 7 7 8 9 10 11 10 10 11 11 12 11 12 13 14 14 14 14 14 13 15 14 13 13 12 12 13 12 12 12 13 14 13 14 13 15 12 11 11 12 13 13 13 9 9 7 6 7 12 18
8 8 8 8 8 9 9 10 11 12 12 11 11 11 10 12 14 15 14 14 14 14 13 14 14 14 12 12 11 11 11 10 11 14 15 14 12 13 14 10 10 11 11 11 11 12 7 5 4 12 14 11
8 9 9 11 11 11 10 10 10 10 10 10 10 10 11 11 12 14 14 14 14 13 12 12 13 12 11 11 10 10 9 11 11 10 11 10 11 11 11 12 10 11 11 7 7 10 8 8 7 7 10 10
Wind_Direction
123 240 259 279 286 299 313 324 326 327 330 331 331 331 330 328 325 324 323 322 319 317 316 314 312 310 308 306 305 304 304 303 303 303 304 304 303 302 301 298 297 297 297 297 297 296 294 292 290 287 284 277
159 220 246 260 270 292 304 312 315 320 323 325 325 327 327 326 323 322 321 319 317 315 314 313 311 310 309 309 308 307 307 307 307 307 307 306 306 305 304 303 302 300 299 299 299 298 296 293 290 287 284 278
202 217 234 251 268 282 297 302 307 314 314 314 318 319 321 320 321 321 319 318 315 314 315 313 312 310 308 308 309 308 309 309 309 309 308 308 308 308 306 305 305 304 302 301 299 297 297 296 295 292 291 283
215 243 244 254 269 277 280 289 293 301 306 308 312 314 315 316 320 321 318 311 316 312 312 313 310 307 308 309 309 310 310 310 310 310 310 311 311 310 309 307 304 301 299 298 296 294 293 292 291 291 286 278
216 230 245 250 253 262 270 274 285 289 298 310 313 314 312 314 320 311 306 309 306 309 310 307 311 311 310 310 312 313 313 312 311 311 311 311 311 311 310 307 303 301 299 296 293 291 290 290 292 285 281 276
214 237 235 231 261 282 287 295 298 302 303 302 306 311 314 313 305 304 299 298 305 309 307 311 310 313 320 327 332 334 331 328 326 324 322 320 318 316 312 310 310 304 298 294 290 287 287 291 284 282 278 277
189 233 245 275 278 287 290 288 293 294 298 303 301 299 297 296 296 296 296 299 299 310 329 340 341 342 344 344 345 341 340 338 336 333 330 328 325 322 321 320 311 305 300 295 292 293 293 285 281 279 279 276
155 182 227 273 286 275 284 294 287 300 302 296 302 301 306 308 314 320 337 343 347 355 360 350 355 355 354 351 347 345 346 341 337 337 335 332 330 328 323 315 311 306 302 298 295 293 288 282 279 278 279 279
344 344 344 320 311 294 288 281 325 350 353 1 358 355 352 352 357 6 10 13 11 11 5 5 3 0 358 352 354 353 352 347 343 342 338 336 333 328 324 321 317 312 307 300 298 292 290 291 291 290 284 281
9 13 8 3 358 3 14 14 28 32 40 39 32 28 23 25 27 23 22 18 14 13 9 8 5 2 358 359 2 0 354 352 350 347 343 341 339 336 333 330 325 322 315 312 307 303 300 297 296 290 286 280
36 35 36 36 34 41 39 48 47 43 41 38 36 30 25 27 23 23 19 15 12 13 5 9 5 2 5 8 6 359 354 355 352 347 346 345 345 344 343 341 339 335 332 325 318 314 310 307 304 298 293 289
43 38 45 44 45 48 48 51 49 44 40 39 36 30 26 25 27 22 17 14 13 9 8 10 7 9 12 9 3 357 359 356 353 352 352 351 350 349 347 343 342 341 339 337 332 326 322 316 312 310 309 309
47 48 51 48 50 51 52 54 51 48 43 38 33 31 26 21 24 22 19 15 12 7 13 10 14 14 11 7 1 358 2 358 355 356 355 354 353 351 350 347 348 347 346 343 340 339 339 336 332 333 331 330
52 47 54 52 52 54 53 52 51 48 46 37 33 33 28 26 28 25 17 15 13 14 13 14 13 16 10 7 360 360 2 357 1 1 358 358 357 353 353 352 351 351 347 347 346 349 348 347 348 343 344 342
53 56 59 55 55 54 54 52 52 51 49 43 38 33 31 32 30 26 21 19 15 15 16 16 15 14 7 6 2 359 1 5 7 359 1 357 354 352 351 350 349 349 347 347 352 354 348 346 342 342 340 336
58 58 58 60 59 57 56 54 53 52 47 43 38 32 31 31 28 26 22 20 18 19 17 16 16 11 10 7 359 360 8 4 5 359 357 358 357 355 355 353 351 355 354 358 354 347 346 342 338 341 340 338
59 61 58 55 59 58 56 54 52 50 44 41 36 35 34 34 33 30 24 21 24 21 18 18 17 11 9 6 0 5 6 6 7 3 1 1 360 0 359 358 356 2 1 356 351 347 342 339 342 344 338 334
56 54 56 57 58 57 58 53 52 53 49 45 39 36 36 37 35 32 26 20 23 23 21 20 19 12 9 8 6 6 6 9 8 5 2 359 359 0 358 357 358 360 356 354 348 346 343 343 345 341 335 335
59 52 54 51 48 54 56 56 54 49 51 49 42 36 35 34 34 32 30 24 21 23 22 21 17 15 11 8 9 8 10 11 13 11 3 356 359 358 356 357 358 359 354 350 349 346 344 344 337 333 334 343
64 61 60 60 57 52 55 59 53 48 45 49 47 40 36 33 34 31 28 24 21 24 22 20 19 17 9 9 8 11 10 14 17 10 3 355 357 359 358 356 0 356 351 351 348 343 343 338 334 335 334 13
66 69 67 63 60 54 54 60 57 49 45 46 43 38 36 30 33 32 29 25 22 24 23 22 20 16 11 10 12 13 13 15 20 14 3 352 356 2 356 356 359 354 354 353 346 341 341 335 332 337 2 13
68 65 67 65 59 55 55 57 61 52 44 43 41 39 38 32 31 33 29 26 24 26 25 24 22 17 14 12 14 16 13 13 19 18 8 356 354 360 355 358 358 353 354 351 344 340 339 332 334 337 18 12
65 66 65 66 62 59 56 54 59 55 50 44 41 40 35 33 32 31 31 27 26 26 26 25 24 21 17 17 17 14 13 12 15 15 9 1 352 358 358 358 359 351 350 346 338 342 337 332 334 344 12 11
46 60 57 56 60 59 51 50 50 51 52 46 44 40 36 34 33 29 32 30 29 29 29 27 24 21 18 19 19 15 12 11 12 14 6 359 355 354 355 360 4 352 355 342 341 344 336 338 328 351 19 13
39 44 53 57 54 56 49 49 49 50 49 48 45 42 38 35 32 31 34 36 33 32 31 31 24 21 19 19 19 17 11 4 11 16 9 359 353 359 356 355 2 357 3 337 341 344 337 337 334 357 25 6
44 45 49 59 64 72 62 53 49 51 50 49 45 43 41 35 33 32 33 36 37 34 31 30 28 23 19 18 17 16 9 11 15 16 11 2 358 360 0 356 353 10 356 358 353 342 339 328 10 336 40 358
43 45 57 62 61 60 70 63 60 58 56 56 50 45 41 37 32 31 32 32 39 37 31 31 31 25 19 19 18 13 11 11 15 16 9 5 1 358 1 5 359 18 10 349 342 329 322 342 341 339 33 355
35 45 56 70 74 69 64 62 58 60 56 54 53 47 42 39 33 32 31 30 37 43 36 32 34 28 24 21 21 19 14 13 18 14 10 6 4 2 7 4 7 12 10 358 354 3 352 319 354 331 355 339
34 49 53 55 65 67 68 62 58 53 51 46 47 50 44 43 37 34 33 29 32 42 43 37 34 31 27 25 22 22 20 20 19 15 11 8 9 9 1 1 360 5 6 5 14 9 352 344 357 351 319 324
39 47 54 55 55 52 53 55 45 43 41 39 39 41 43 43 41 38 33 29 27 31 46 44 37 34 30 29 25 26 22 19 18 16 16 11 7 5 3 360 2 1 359 8 15 22 21 357 325 326 318 330
44 47 50 56 58 59 59 61 56 51 49 46 42 44 41 38 39 38 34 26 19 15 28 50 43 40 36 31 32 24 25 22 19 14 16 9 10 7 3 356 18 5 351 351 13 16 2 6 344 322 329 345